Location: ????????
(60.5616°N, 46.8254°E)
Time: 16:01:49
(UTC+00:00)

Cosmos 1937 Rocket - Pass Details

Date: 18 February 2020
Orbit: 747 x 780 km, 74.0° (Epoch: 07 April)

Event Time Altitude Azimuth Distance (km) Brightness Sun altitude
Rises 17:02:09 0° 326° (NW) 3,273 7.6 -24.1°
Reaches altitude 10° 17:04:34 10° 326° (NW) 2,339 6.7 -24.4°
Maximum altitude 17:09:53 84° 239° (WSW) 785 3.4 -25.0°
Enters shadow 17:10:38 66° 164° (SSE) 843 3.4 -25.1°
